| time (UTC) | temp C | wind direction | speed KPH | gust KPH | rain 1hr cm | rain 24hr cm | rain mn cm | humidity % | barometer mb |
| 20260506172053 | 12 | 3 | 16.1 | 25.7 | 0.00 | 0.05 | 0.05 | 66 | 1013.6 |
| 20260506171555 | 12 | 8 | 16.1 | 24.1 | 0.00 | 0.05 | 0.05 | 64 | 1013.6 |
| 20260506171055 | 12 | 345 | 16.1 | 22.5 | 0.00 | 0.05 | 0.05 | 62 | 1013.7 |
| 20260506170555 | 12 | 34 | 11.3 | 24.1 | 0.00 | 0.05 | 0.05 | 61 | 1013.9 |
| 20260506170055 | 12 | 342 | 17.7 | 24.1 | 0.00 | 0.05 | 0.05 | 63 | 1013.8 |
| 20260506165554 | 12 | 333 | 16.1 | 24.1 | 0.00 | 0.05 | 0.05 | 63 | 1013.8 |
| 20260506165055 | 12 | 345 | 16.1 | 22.5 | 0.00 | 0.05 | 0.05 | 65 | 1014.1 |
| 20260506164553 | 12 | 319 | 12.9 | 27.4 | 0.00 | 0.05 | 0.05 | 63 | 1014.1 |
| 20260506164054 | 12 | 340 | 14.5 | 27.4 | 0.00 | 0.05 | 0.05 | 65 | 1014.0 |
| 20260506163554 | 12 | 338 | 12.9 | 25.7 | 0.00 | 0.05 | 0.05 | 63 | 1013.9 |
| 20260506163056 | 12 | 336 | 14.5 | 25.7 | 0.00 | 0.05 | 0.05 | 65 | 1013.6 |
| 20260506162553 | 12 | 345 | 16.1 | 29.0 | 0.00 | 0.05 | 0.05 | 65 | 1013.4 |
| 20260506162053 | 12 | 340 | 17.7 | 29.0 | 0.00 | 0.05 | 0.05 | 64 | 1013.4 |
| 20260506161603 | 12 | 324 | 16.1 | 24.1 | 0.00 | 0.05 | 0.05 | 64 | 1013.4 |
| 20260506161055 | 12 | 25 | 14.5 | 24.1 | 0.00 | 0.05 | 0.05 | 62 | 1013.4 |
| 20260506160553 | 12 | 330 | 16.1 | 25.7 | 0.00 | 0.05 | 0.05 | 64 | 1013.4 |
| 20260506160054 | 12 | 11 | 14.5 | 27.4 | 0.00 | 0.05 | 0.05 | 63 | 1013.2 |
| 20260506155553 | 12 | 14 | 14.5 | 27.4 | 0.00 | 0.05 | 0.05 | 64 | 1013.2 |
| 20260506155054 | 12 | 20 | 12.9 | 27.4 | 0.00 | 0.05 | 0.05 | 64 | 1013.1 |
| 20260506154554 | 12 | 22 | 16.1 | 29.0 | 0.00 | 0.05 | 0.05 | 63 | 1013.1 |
| 20260506154054 | 12 | 1 | 14.5 | 29.0 | 0.00 | 0.05 | 0.05 | 62 | 1013.3 |
| 20260506153553 | 12 | 354 | 16.1 | 29.0 | 0.00 | 0.05 | 0.05 | 62 | 1013.2 |
| 20260506153057 | 12 | 345 | 14.5 | 27.4 | 0.00 | 0.05 | 0.05 | 60 | 1013.0 |
| 20260506152553 | 12 | 338 | 12.9 | 24.1 | 0.00 | 0.05 | 0.05 | 59 | 1013.0 |
| 20260506152056 | 12 | 356 | 17.7 | 24.1 | 0.00 | 0.05 | 0.05 | 60 | 1012.9 |
| 20260506151603 | 12 | 342 | 17.7 | 24.1 | 0.00 | 0.05 | 0.05 | 61 | 1012.9 |
| 20260506151053 | 12 | 341 | 12.9 | 24.1 | 0.00 | 0.05 | 0.05 | 59 | 1012.7 |
| 20260506150553 | 12 | 22 | 14.5 | 22.5 | 0.00 | 0.05 | 0.05 | 59 | 1012.8 |
| 20260506150106 | 12 | 341 | 14.5 | 22.5 | 0.00 | 0.05 | 0.05 | 60 | 1012.7 |
| 20260506145553 | 12 | 329 | 14.5 | 22.5 | 0.03 | 0.05 | 0.05 | 59 | 1012.5 |
| 20260506145056 | 12 | 330 | 11.3 | 20.9 | 0.03 | 0.05 | 0.05 | 60 | 1012.5 |
| 20260506144611 | 12 | 333 | 14.5 | 20.9 | 0.03 | 0.05 | 0.05 | 62 | 1012.9 |
| 20260506144054 | 12 | 346 | 12.9 | 27.4 | 0.03 | 0.05 | 0.05 | 62 | 1012.7 |
| 20260506143554 | 12 | 330 | 16.1 | 27.4 | 0.03 | 0.05 | 0.05 | 63 | 1012.8 |
| 20260506143057 | 12 | 334 | 19.3 | 25.7 | 0.03 | 0.05 | 0.05 | 63 | 1012.8 |
| 20260506142557 | 12 | 352 | 17.7 | 25.7 | 0.03 | 0.05 | 0.05 | 64 | 1012.7 |
| 20260506142053 | 12 | 7 | 14.5 | 29.0 | 0.03 | 0.05 | 0.05 | 63 | 1012.5 |
| 20260506141554 | 12 | 324 | 17.7 | 29.0 | 0.03 | 0.05 | 0.05 | 61 | 1012.4 |
| 20260506141056 | 12 | 7 | 17.7 | 27.4 | 0.03 | 0.05 | 0.05 | 59 | 1012.3 |
| 20260506140554 | 12 | 325 | 16.1 | 24.1 | 0.03 | 0.05 | 0.05 | 57 | 1012.3 |
| 20260506140106 | 12 | 350 | 14.5 | 22.5 | 0.03 | 0.05 | 0.05 | 57 | 1012.2 |
| 20260506135553 | 13 | 326 | 14.5 | 20.9 | 0.00 | 0.03 | 0.03 | 57 | 1012.2 |
| 20260506135052 | 13 | 2 | 11.3 | 17.7 | 0.00 | 0.03 | 0.03 | 58 | 1012.0 |
| 20260506134554 | 13 | 341 | 9.7 | 17.7 | 0.00 | 0.03 | 0.03 | 59 | 1011.7 |
| 20260506134054 | 13 | 34 | 9.7 | 17.7 | 0.00 | 0.03 | 0.03 | 60 | 1011.3 |
| 20260506133553 | 13 | 319 | 9.7 | 17.7 | 0.00 | 0.03 | 0.03 | 60 | 1011.5 |
| 20260506133133 | 13 | 13 | 9.7 | 16.1 | 0.00 | 0.03 | 0.03 | 59 | 1011.5 |
| 20260506132554 | 13 | 315 | 8.0 | 17.7 | 0.00 | 0.03 | 0.03 | 61 | 1011.5 |
| 20260506132055 | 13 | 12 | 8.0 | 19.3 | 0.00 | 0.03 | 0.03 | 62 | 1011.4 |
| 20260506131558 | 13 | 342 | 12.9 | 27.4 | 0.00 | 0.03 | 0.03 | 65 | 1011.5 |
| 20260506131058 | 13 | 20 | 11.3 | 27.4 | 0.00 | 0.03 | 0.03 | 66 | 1011.5 |
| 20260506130552 | 13 | 347 | 16.1 | 27.4 | 0.00 | 0.03 | 0.03 | 67 | 1011.6 |
| 20260506130138 | 13 | 336 | 14.5 | 22.5 | 0.00 | 0.03 | 0.03 | 67 | 1011.6 |
| 20260506125554 | 13 | 359 | 9.7 | 22.5 | 0.00 | 0.03 | 0.03 | 67 | 1011.3 |
| 20260506125054 | 13 | 353 | 14.5 | 22.5 | 0.00 | 0.03 | 0.03 | 67 | 1011.4 |
| 20260506124553 | 13 | 345 | 9.7 | 17.7 | 0.00 | 0.03 | 0.03 | 66 | 1011.2 |
| 20260506124054 | 13 | 15 | 8.0 | 16.1 | 0.00 | 0.03 | 0.03 | 66 | 1011.1 |
| 20260506123554 | 13 | 9 | 9.7 | 16.1 | 0.00 | 0.03 | 0.03 | 67 | 1011.0 |
| 20260506123101 | 13 | 5 | 9.7 | 16.1 | 0.00 | 0.03 | 0.03 | 67 | 1010.8 |
| 20260506122552 | 13 | 345 | 6.4 | 12.9 | 0.03 | 0.03 | 0.03 | 66 | 1010.7 |
| 20260506122050 | 13 | 349 | 6.4 | 16.1 | 0.03 | 0.03 | 0.03 | 66 | 1010.8 |
| 20260506121600 | 13 | 18 | 6.4 | 17.7 | 0.03 | 0.03 | 0.03 | 68 | 1010.6 |
| 20260506121055 | 13 | 41 | 8.0 | 19.3 | 0.03 | 0.03 | 0.03 | 67 | 1010.5 |
| 20260506120556 | 13 | 48 | 9.7 | 19.3 | 0.03 | 0.03 | 0.03 | 69 | 1010.4 |
| 20260506120104 | 13 | 323 | 9.7 | 20.9 | 0.03 | 0.03 | 0.03 | 67 | 1010.2 |
| 20260506115555 | 13 | 357 | 9.7 | 25.7 | 0.03 | 0.03 | 0.03 | 68 | 1010.1 |
| 20260506115055 | 13 | 8 | 12.9 | 25.7 | 0.03 | 0.03 | 0.03 | 70 | 1010.3 |
| 20260506114554 | 13 | 8 | 16.1 | 25.7 | 0.03 | 0.03 | 0.03 | 70 | 1010.2 |
| 20260506114051 | 13 | 340 | 12.9 | 20.9 | 0.03 | 0.03 | 0.03 | 68 | 1010.4 |
| 20260506113552 | 13 | 21 | 12.9 | 20.9 | 0.03 | 0.03 | 0.03 | 67 | 1010.3 |
| 20260506113054 | 14 | 16 | 11.3 | 20.9 | 0.03 | 0.03 | 0.03 | 65 | 1010.2 |
| 20260506112554 | 14 | 7 | 9.7 | 16.1 | 0.00 | 0.00 | 0.00 | 66 | 1010.2 |
| 20260506112054 | 14 | 329 | 1.6 | 19.3 | 0.00 | 0.00 | 0.00 | 67 | 1009.9 |
| 20260506111557 | 14 | 34 | 9.7 | 24.1 | 0.00 | 0.00 | 0.00 | 68 | 1009.8 |
| 20260506111054 | 14 | 19 | 14.5 | 24.1 | 0.00 | 0.00 | 0.00 | 69 | 1009.8 |
| 20260506110554 | 13 | 11 | 12.9 | 19.3 | 0.00 | 0.00 | 0.00 | 70 | 1009.7 |
| 20260506110053 | 13 | 18 | 9.7 | 19.3 | 0.00 | 0.00 | 0.00 | 71 | 1009.8 |
| 20260506105552 | 14 | 17 | 8.0 | 24.1 | 0.00 | 0.00 | 0.00 | 71 | 1009.7 |
| 20260506105054 | 14 | 355 | 9.7 | 29.0 | 0.00 | 0.00 | 0.00 | 73 | 1009.6 |
| 20260506104559 | 14 | 322 | 16.1 | 35.4 | 0.00 | 0.00 | 0.00 | 75 | 1009.6 |
| 20260506104051 | 14 | 359 | 17.7 | 35.4 | 0.00 | 0.00 | 0.00 | 77 | 1009.5 |
| 20260506103554 | 14 | 350 | 25.7 | 51.5 | 0.00 | 0.00 | 0.00 | 79 | 1009.7 |
| 20260506103055 | 15 | 329 | 25.7 | 80.5 | 0.00 | 0.00 | 0.00 | 81 | 1010.0 |
| 20260506102555 | 15 | 320 | 46.7 | 80.5 | 0.00 | 0.00 | 0.00 | 83 | 1010.1 |
| 20260506102056 | 16 | 323 | 45.1 | 80.5 | 0.00 | 0.00 | 0.00 | 82 | 1009.9 |
| 20260506101556 | 18 | 322 | 9.7 | 40.2 | 0.00 | 0.00 | 0.00 | 81 | 1008.4 |
| 20260506101053 | 21 | 311 | 24.1 | 40.2 | 0.00 | 0.00 | 0.00 | 72 | 1008.3 |
| 20260506100552 | 23 | 250 | 29.0 | 40.2 | 0.00 | 0.00 | 0.00 | 81 | 1008.1 |
| 20260506100106 | 23 | 237 | 27.4 | 43.5 | 0.00 | 0.00 | 0.00 | 81 | 1007.5 |
| 20260506095552 | 23 | 226 | 29.0 | 43.5 | 0.00 | 0.00 | 0.00 | 81 | 1007.4 |
| 20260506095052 | 23 | 219 | 24.1 | 40.2 | 0.00 | 0.00 | 0.00 | 80 | 1007.0 |
| 20260506094603 | 23 | 238 | 30.6 | 40.2 | 0.00 | 0.00 | 0.00 | 80 | 1007.0 |
| 20260506094052 | 23 | 229 | 27.4 | 40.2 | 0.00 | 0.00 | 0.00 | 81 | 1006.7 |
| 20260506093551 | 23 | 221 | 27.4 | 40.2 | 0.00 | 0.00 | 0.00 | 81 | 1006.8 |
| 20260506093054 | 23 | 210 | 29.0 | 38.6 | 0.00 | 0.00 | 0.00 | 81 | 1006.8 |
| 20260506092552 | 23 | 226 | 27.4 | 43.5 | 0.00 | 0.00 | 0.00 | 81 | 1007.0 |
| 20260506092057 | 23 | 228 | 29.0 | 46.7 | 0.00 | 0.00 | 0.00 | 81 | 1007.1 |
| 20260506091607 | 23 | 223 | 29.0 | 46.7 | 0.00 | 0.00 | 0.00 | 81 | 1007.0 |
| 20260506091056 | 23 | 229 | 27.4 | 43.5 | 0.00 | 0.00 | 0.00 | 81 | 1007.4 |
| 20260506090557 | 23 | 219 | 24.1 | 41.8 | 0.00 | 0.00 | 0.00 | 81 | 1007.2 |
| 20260506090057 | 23 | 226 | 20.9 | 30.6 | 0.00 | 0.00 | 0.00 | 81 | 1007.5 |
| 20260506085556 | 23 | 238 | 20.9 | 30.6 | 0.00 | 0.00 | 0.00 | 81 | 1007.7 |
| 20260506085058 | 23 | 229 | 22.5 | 33.8 | 0.00 | 0.00 | 0.00 | 81 | 1007.6 |
| 20260506084601 | 23 | 229 | 22.5 | 35.4 | 0.00 | 0.00 | 0.00 | 81 | 1007.6 |
| 20260506084056 | 23 | 231 | 27.4 | 41.8 | 0.00 | 0.00 | 0.00 | 81 | 1007.6 |
| 20260506083556 | 23 | 224 | 29.0 | 41.8 | 0.00 | 0.00 | 0.00 | 81 | 1007.5 |
| 20260506083058 | 23 | 244 | 27.4 | 37.0 | 0.00 | 0.00 | 0.00 | 81 | 1006.8 |
| 20260506082555 | 23 | 217 | 24.1 | 37.0 | 0.00 | 0.00 | 0.00 | 81 | 1006.8 |
| 20260506082056 | 23 | 237 | 25.7 | 37.0 | 0.00 | 0.00 | 0.00 | 81 | 1006.8 |
| 20260506081609 | 23 | 196 | 25.7 | 37.0 | 0.00 | 0.00 | 0.00 | 81 | 1006.7 |
| 20260506081056 | 23 | 227 | 24.1 | 33.8 | 0.00 | 0.00 | 0.00 | 81 | 1006.9 |
| 20260506080557 | 23 | 222 | 24.1 | 35.4 | 0.00 | 0.00 | 0.00 | 81 | 1006.8 |
| 20260506073057 | 23 | 226 | 27.4 | 45.1 | 0.00 | 0.00 | 0.00 | 81 | 1006.9 |
| 20260506072556 | 23 | 211 | 32.2 | 45.1 | 0.00 | 0.00 | 0.00 | 81 | 1006.8 |
| 20260506072056 | 23 | 200 | 32.2 | 45.1 | 0.00 | 0.00 | 0.00 | 81 | 1007.0 |
| 20260506071600 | 23 | 226 | 29.0 | 43.5 | 0.00 | 0.00 | 0.00 | 81 | 1007.0 |
| 20260506071059 | 23 | 206 | 27.4 | 41.8 | 0.00 | 0.00 | 0.00 | 81 | 1006.7 |
| 20260506070556 | 23 | 223 | 25.7 | 40.2 | 0.00 | 0.00 | 0.00 | 81 | 1007.0 |
| 20260506062057 | 23 | 195 | 20.9 | 38.6 | 0.00 | 0.00 | 0.00 | 82 | 1007.2 |
| 20260506061603 | 23 | 198 | 24.1 | 33.8 | 0.00 | 0.00 | 0.00 | 82 | 1007.2 |
| 20260506061056 | 23 | 198 | 24.1 | 33.8 | 0.00 | 0.00 | 0.00 | 82 | 1007.3 |
| 20260506060557 | 23 | 186 | 20.9 | 30.6 | 0.00 | 0.00 | 0.00 | 82 | 1007.2 |
| 20260506051056 | 23 | 224 | 17.7 | 35.4 | 0.00 | 0.00 | 0.00 | 81 | 1007.5 |
| 20260506050557 | 23 | 207 | 20.9 | 30.6 | 0.00 | 0.00 | 0.00 | 81 | 1007.6 |
| 20260506045057 | 23 | 189 | 16.1 | 27.4 | 0.00 | 0.00 | 0.00 | 81 | 1007.2 |
| 20260506044557 | 23 | 199 | 17.7 | 27.4 | 0.00 | 0.00 | 0.00 | 81 | 1007.2 |
| 20260506044056 | 23 | 183 | 14.5 | 27.4 | 0.00 | 0.00 | 0.00 | 81 | 1007.0 |
| 20260506043556 | 23 | 179 | 16.1 | 29.0 | 0.00 | 0.00 | 0.00 | 81 | 1007.4 |
| 20260506043100 | 23 | 181 | 17.7 | 32.2 | 0.00 | 0.00 | 0.00 | 81 | 1007.2 |
| 20260506042556 | 23 | 162 | 19.3 | 32.2 | 0.00 | 0.00 | 0.00 | 81 | 1007.3 |
| 20260506042056 | 23 | 152 | 19.3 | 32.2 | 0.00 | 0.00 | 0.00 | 81 | 1007.4 |
| 20260506041558 | 23 | 189 | 16.1 | 29.0 | 0.00 | 0.00 | 0.00 | 81 | 1007.6 |
| 20260506041055 | 23 | 177 | 17.7 | 30.6 | 0.00 | 0.00 | 0.00 | 80 | 1007.5 |
| 20260506040556 | 23 | 187 | 22.5 | 30.6 | 0.00 | 0.00 | 0.00 | 80 | 1007.6 |
| 20260506040100 | 23 | 179 | 17.7 | 29.0 | 0.00 | 0.00 | 0.00 | 80 | 1007.7 |
| 20260506035556 | 23 | 175 | 19.3 | 29.0 | 0.00 | 0.00 | 0.00 | 80 | 1007.8 |
| 20260506035056 | 23 | 180 | 16.1 | 30.6 | 0.00 | 0.00 | 0.00 | 80 | 1007.7 |
| 20260506034612 | 23 | 165 | 16.1 | 30.6 | 0.00 | 0.00 | 0.00 | 80 | 1007.8 |
| 20260506034056 | 23 | 196 | 20.9 | 30.6 | 0.00 | 0.00 | 0.00 | 80 | 1008.0 |
| 20260506033556 | 23 | 170 | 17.7 | 29.0 | 0.00 | 0.00 | 0.00 | 80 | 1007.7 |
| 20260506033059 | 23 | 212 | 14.5 | 29.0 | 0.00 | 0.00 | 0.00 | 80 | 1007.7 |
| 20260506032556 | 23 | 169 | 17.7 | 29.0 | 0.00 | 0.00 | 0.00 | 80 | 1007.6 |
| 20260506032056 | 23 | 174 | 19.3 | 29.0 | 0.00 | 0.00 | 0.00 | 80 | 1007.7 |
| 20260506031605 | 23 | 194 | 16.1 | 24.1 | 0.00 | 0.00 | 0.00 | 79 | 1007.6 |
| 20260506031058 | 23 | 184 | 6.4 | 20.9 | 0.00 | 0.00 | 0.00 | 79 | 1007.7 |
| 20260506030556 | 23 | 0 | 9.7 | 20.9 | 0.00 | 0.00 | 0.00 | 79 | 1007.6 |
| 20260506030054 | 23 | 187 | 12.9 | 25.7 | 0.00 | 0.00 | 0.00 | 79 | 1008.0 |
| 20260506025557 | 23 | 179 | 11.3 | 25.7 | 0.00 | 0.00 | 0.00 | 79 | 1007.9 |
| 20260506025056 | 23 | 183 | 17.7 | 29.0 | 0.00 | 0.00 | 0.00 | 79 | 1007.7 |
| 20260506024556 | 23 | 171 | 14.5 | 29.0 | 0.00 | 0.00 | 0.00 | 79 | 1007.6 |
| 20260506024056 | 23 | 169 | 14.5 | 22.5 | 0.00 | 0.00 | 0.00 | 79 | 1007.6 |
| 20260506023556 | 23 | 176 | 9.7 | 22.5 | 0.00 | 0.00 | 0.00 | 78 | 1007.3 |
| 20260506023105 | 23 | 226 | 11.3 | 24.1 | 0.00 | 0.00 | 0.00 | 78 | 1007.4 |
| 20260506022556 | 23 | 175 | 16.1 | 24.1 | 0.00 | 0.00 | 0.00 | 78 | 1007.4 |
| 20260506022056 | 23 | 196 | 11.3 | 29.0 | 0.00 | 0.00 | 0.00 | 78 | 1007.2 |
| 20260506021553 | 23 | 219 | 11.3 | 37.0 | 0.00 | 0.00 | 0.00 | 78 | 1007.2 |
| 20260506021100 | 23 | 193 | 14.5 | 37.0 | 0.00 | 0.00 | 0.00 | 78 | 1007.1 |
| 20260506020555 | 23 | 167 | 16.1 | 30.6 | 0.00 | 0.00 | 0.00 | 78 | 1007.1 |
| 20260506020057 | 23 | 168 | 17.7 | 30.6 | 0.00 | 0.00 | 0.00 | 78 | 1006.8 |
| 20260506015556 | 23 | 181 | 22.5 | 30.6 | 0.00 | 0.00 | 0.00 | 77 | 1006.9 |
| 20260506015059 | 23 | 165 | 16.1 | 30.6 | 0.00 | 0.00 | 0.00 | 77 | 1007.0 |
| 20260506014554 | 23 | 159 | 19.3 | 30.6 | 0.00 | 0.00 | 0.00 | 77 | 1007.1 |
| 20260506014056 | 23 | 195 | 17.7 | 30.6 | 0.00 | 0.00 | 0.00 | 77 | 1007.0 |
| 20260506013556 | 23 | 196 | 12.9 | 30.6 | 0.00 | 0.00 | 0.00 | 77 | 1006.8 |
| 20260506013109 | 23 | 166 | 20.9 | 30.6 | 0.00 | 0.00 | 0.00 | 77 | 1007.0 |
| 20260506012556 | 23 | 176 | 17.7 | 35.4 | 0.00 | 0.00 | 0.00 | 77 | 1006.8 |
| 20260506012059 | 23 | 188 | 24.1 | 35.4 | 0.00 | 0.00 | 0.00 | 77 | 1006.7 |
| 20260506011600 | 23 | 191 | 19.3 | 35.4 | 0.00 | 0.00 | 0.00 | 77 | 1006.5 |
| 20260506011056 | 23 | 169 | 19.3 | 41.8 | 0.00 | 0.00 | 0.00 | 77 | 1006.2 |
| 20260506010556 | 23 | 177 | 24.1 | 41.8 | 0.00 | 0.00 | 0.00 | 77 | 1006.1 |
| 20260506010117 | 23 | 198 | 27.4 | 40.2 | 0.00 | 0.00 | 0.00 | 77 | 1006.0 |
| 20260506005555 | 23 | 151 | 22.5 | 37.0 | 0.00 | 0.00 | 0.00 | 77 | 1006.0 |
| 20260506005057 | 23 | 184 | 17.7 | 30.6 | 0.00 | 0.00 | 0.00 | 77 | 1006.0 |
| 20260506004555 | 23 | 177 | 20.9 | 30.6 | 0.00 | 0.00 | 0.00 | 76 | 1006.1 |
| 20260506004055 | 23 | 191 | 19.3 | 30.6 | 0.00 | 0.00 | 0.00 | 76 | 1006.1 |
| 20260506003556 | 23 | 171 | 20.9 | 32.2 | 0.00 | 0.00 | 0.00 | 76 | 1006.2 |
| 20260506003114 | 23 | 167 | 19.3 | 32.2 | 0.00 | 0.00 | 0.00 | 76 | 1006.4 |
| 20260506002556 | 23 | 193 | 9.7 | 30.6 | 0.00 | 0.00 | 0.00 | 76 | 1006.4 |
| 20260506002056 | 23 | 162 | 16.1 | 30.6 | 0.00 | 0.00 | 0.00 | 76 | 1006.3 |
| 20260506001601 | 23 | 174 | 14.5 | 29.0 | 0.00 | 0.00 | 0.00 | 76 | 1006.1 |
| 20260506001056 | 23 | 204 | 17.7 | 30.6 | 0.00 | 0.00 | 0.00 | 77 | 1006.3 |
| 20260506000557 | 23 | 151 | 17.7 | 30.6 | 0.00 | 0.00 | 0.00 | 77 | 1006.2 |
| 20260506000056 | 23 | 171 | 20.9 | 30.6 | 0.00 | 0.00 | 0.00 | 77 | 1006.2 |
| 20260505235556 | 23 | 176 | 22.5 | 30.6 | 0.00 | 0.00 | 0.00 | 77 | 1006.1 |
| 20260505235057 | 23 | 159 | 17.7 | 29.0 | 0.00 | 0.00 | 0.00 | 77 | 1006.2 |
| 20260505234559 | 23 | 150 | 19.3 | 29.0 | 0.00 | 0.00 | 0.00 | 77 | 1006.1 |
| 20260505234100 | 23 | 156 | 19.3 | 29.0 | 0.00 | 0.00 | 0.00 | 76 | 1006.3 |
| 20260505233557 | 23 | 194 | 17.7 | 29.0 | 0.00 | 0.00 | 0.00 | 76 | 1006.4 |
| 20260505233106 | 23 | 166 | 17.7 | 32.2 | 0.00 | 0.00 | 0.00 | 76 | 1006.4 |
| 20260505232555 | 23 | 170 | 19.3 | 32.2 | 0.00 | 0.00 | 0.00 | 76 | 1006.5 |
| 20260505232055 | 23 | 176 | 17.7 | 32.2 | 0.00 | 0.00 | 0.00 | 76 | 1006.3 |
| 20260505231556 | 23 | 166 | 22.5 | 37.0 | 0.00 | 0.00 | 0.00 | 76 | 1006.2 |
| 20260505231055 | 23 | 148 | 22.5 | 37.0 | 0.00 | 0.00 | 0.00 | 76 | 1006.2 |
| 20260505230556 | 23 | 218 | 22.5 | 32.2 | 0.00 | 0.00 | 0.00 | 76 | 1006.6 |
| 20260505230057 | 23 | 165 | 22.5 | 30.6 | 0.00 | 0.00 | 0.00 | 76 | 1006.9 |
| 20260505225556 | 23 | 165 | 22.5 | 35.4 | 0.00 | 0.00 | 0.00 | 76 | 1006.9 |
| 20260505225056 | 23 | 176 | 19.3 | 35.4 | 0.00 | 0.00 | 0.00 | 77 | 1007.1 |
| 20260505224556 | 23 | 176 | 22.5 | 32.2 | 0.00 | 0.00 | 0.00 | 77 | 1007.0 |
| 20260505224056 | 23 | 182 | 20.9 | 32.2 | 0.00 | 0.00 | 0.00 | 77 | 1007.0 |
| 20260505223555 | 23 | 174 | 20.9 | 32.2 | 0.00 | 0.00 | 0.00 | 78 | 1007.1 |
| 20260505223058 | 23 | 175 | 19.3 | 30.6 | 0.00 | 0.00 | 0.00 | 79 | 1007.2 |
| 20260505222555 | 22 | 193 | 22.5 | 35.4 | 0.00 | 0.00 | 0.00 | 79 | 1007.2 |
| 20260505222055 | 22 | 191 | 20.9 | 35.4 | 0.00 | 0.00 | 0.00 | 79 | 1007.4 |
| 20260505221556 | 22 | 186 | 20.9 | 37.0 | 0.00 | 0.00 | 0.00 | 80 | 1007.2 |
| 20260505221055 | 22 | 176 | 24.1 | 37.0 | 0.00 | 0.00 | 0.00 | 80 | 1007.2 |
| 20260505220557 | 22 | 176 | 24.1 | 37.0 | 0.00 | 0.00 | 0.00 | 81 | 1007.3 |
| 20260505220058 | 22 | 170 | 20.9 | 35.4 | 0.00 | 0.00 | 0.00 | 81 | 1007.4 |
| 20260505215600 | 22 | 205 | 24.1 | 35.4 | 0.00 | 0.00 | 0.00 | 81 | 1007.2 |
| 20260505215055 | 22 | 149 | 24.1 | 43.5 | 0.00 | 0.00 | 0.00 | 81 | 1007.2 |
| 20260505214609 | 22 | 186 | 27.4 | 43.5 | 0.00 | 0.00 | 0.00 | 81 | 1007.4 |
| 20260505214053 | 22 | 203 | 30.6 | 43.5 | 0.00 | 0.00 | 0.00 | 81 | 1007.4 |
| 20260505213554 | 22 | 175 | 27.4 | 37.0 | 0.00 | 0.00 | 0.00 | 81 | 1007.3 |
| 20260505213052 | 22 | 167 | 24.1 | 40.2 | 0.00 | 0.00 | 0.00 | 82 | 1007.3 |
| 20260505212554 | 22 | 170 | 27.4 | 40.2 | 0.00 | 0.00 | 0.00 | 81 | 1007.3 |
| 20260505212053 | 22 | 175 | 25.7 | 40.2 | 0.00 | 0.00 | 0.00 | 81 | 1007.4 |
| 20260505211556 | 22 | 183 | 27.4 | 45.1 | 0.00 | 0.00 | 0.00 | 81 | 1007.4 |
| 20260505211053 | 22 | 196 | 33.8 | 45.1 | 0.00 | 0.00 | 0.00 | 81 | 1007.6 |
| 20260505210553 | 22 | 167 | 33.8 | 48.3 | 0.00 | 0.00 | 0.00 | 80 | 1007.5 |
| 20260505210055 | 22 | 172 | 32.2 | 48.3 | 0.00 | 0.00 | 0.00 | 80 | 1007.5 |
| 20260505205553 | 22 | 160 | 37.0 | 48.3 | 0.00 | 0.00 | 0.00 | 79 | 1007.6 |
| 20260505205054 | 22 | 190 | 33.8 | 51.5 | 0.00 | 0.00 | 0.00 | 78 | 1007.7 |
| 20260505204553 | 22 | 190 | 32.2 | 51.5 | 0.00 | 0.00 | 0.00 | 78 | 1007.6 |
| 20260505204053 | 23 | 176 | 29.0 | 37.0 | 0.00 | 0.00 | 0.00 | 77 | 1007.8 |
| 20260505203553 | 23 | 176 | 25.7 | 35.4 | 0.00 | 0.00 | 0.00 | 77 | 1007.8 |
| 20260505203056 | 23 | 170 | 24.1 | 32.2 | 0.00 | 0.00 | 0.00 | 77 | 1008.0 |
| 20260505202555 | 22 | 167 | 19.3 | 38.6 | 0.00 | 0.00 | 0.00 | 78 | 1008.0 |
| 20260505202055 | 22 | 192 | 25.7 | 43.5 | 0.00 | 0.00 | 0.00 | 78 | 1008.1 |
| 20260505201557 | 22 | 164 | 30.6 | 43.5 | 0.00 | 0.00 | 0.00 | 77 | 1008.1 |
| 20260505201056 | 23 | 186 | 30.6 | 43.5 | 0.00 | 0.00 | 0.00 | 76 | 1008.0 |
| 20260505200553 | 23 | 160 | 27.4 | 37.0 | 0.00 | 0.00 | 0.00 | 75 | 1008.1 |
| 20260505200056 | 23 | 177 | 25.7 | 41.8 | 0.00 | 0.00 | 0.00 | 75 | 1008.2 |
| 20260505195552 | 23 | 193 | 30.6 | 41.8 | 0.00 | 0.00 | 0.00 | 75 | 1008.2 |
| 20260505195052 | 23 | 200 | 32.2 | 46.7 | 0.00 | 0.00 | 0.00 | 75 | 1008.1 |
| 20260505194555 | 23 | 205 | 32.2 | 46.7 | 0.00 | 0.00 | 0.00 | 74 | 1008.2 |
| 20260505194053 | 23 | 196 | 27.4 | 41.8 | 0.00 | 0.00 | 0.00 | 74 | 1008.2 |
| 20260505193556 | 23 | 200 | 32.2 | 46.7 | 0.00 | 0.00 | 0.00 | 74 | 1008.0 |
| 20260505193053 | 23 | 204 | 32.2 | 46.7 | 0.00 | 0.00 | 0.00 | 74 | 1008.3 |
| 20260505192553 | 23 | 191 | 30.6 | 43.5 | 0.00 | 0.00 | 0.00 | 74 | 1008.3 |
| 20260505192053 | 23 | 180 | 30.6 | 41.8 | 0.00 | 0.00 | 0.00 | 74 | 1008.3 |
| 20260505191605 | 23 | 179 | 30.6 | 41.8 | 0.00 | 0.00 | 0.00 | 74 | 1008.4 |
| 20260505191058 | 23 | 167 | 25.7 | 41.8 | 0.00 | 0.00 | 0.00 | 74 | 1008.4 |
| 20260505190552 | 23 | 190 | 30.6 | 40.2 | 0.00 | 0.00 | 0.00 | 74 | 1008.3 |
| 20260505185556 | 23 | 196 | 22.5 | 48.3 | 0.00 | 0.00 | 0.00 | 74 | 1008.4 |
| 20260505185056 | 23 | 203 | 29.0 | 48.3 | 0.00 | 0.00 | 0.00 | 75 | 1008.3 |
| 20260505184558 | 23 | 189 | 35.4 | 48.3 | 0.00 | 0.00 | 0.00 | 75 | 1008.5 |
| 20260505184053 | 22 | 188 | 25.7 | 46.7 | 0.00 | 0.00 | 0.00 | 75 | 1008.5 |
| 20260505183553 | 22 | 193 | 29.0 | 46.7 | 0.00 | 0.00 | 0.00 | 75 | 1008.5 |
| 20260505183114 | 22 | 196 | 33.8 | 46.7 | 0.00 | 0.00 | 0.00 | 75 | 1008.4 |
| 20260505182553 | 22 | 188 | 32.2 | 43.5 | 0.00 | 0.00 | 0.00 | 75 | 1008.4 |
| 20260505182053 | 22 | 162 | 29.0 | 41.8 | 0.00 | 0.00 | 0.00 | 75 | 1008.3 |
| 20260505181557 | 22 | 162 | 24.1 | 41.8 | 0.00 | 0.00 | 0.00 | 77 | 1008.4 |
| 20260505181056 | 22 | 178 | 19.3 | 35.4 | 0.00 | 0.00 | 0.00 | 77 | 1008.4 |
| 20260505180554 | 22 | 169 | 25.7 | 37.0 | 0.00 | 0.00 | 0.00 | 76 | 1008.4 |
| 20260505180054 | 21 | 188 | 24.1 | 37.0 | 0.00 | 0.00 | 0.00 | 78 | 1008.6 |
| 20260505175553 | 21 | 208 | 24.1 | 37.0 | 0.00 | 0.00 | 0.00 | 78 | 1008.6 |
| 20260505175056 | 21 | 182 | 20.9 | 45.1 | 0.00 | 0.00 | 0.00 | 78 | 1008.8 |
| 20260505174554 | 21 | 160 | 24.1 | 45.1 | 0.00 | 0.00 | 0.00 | 79 | 1008.7 |
| 20260505174053 | 21 | 173 | 32.2 | 45.1 | 0.00 | 0.00 | 0.00 | 79 | 1008.7 |
| 20260505173555 | 21 | 170 | 30.6 | 41.8 | 0.00 | 0.00 | 0.00 | 79 | 1008.8 |
| 20260505173101 | 21 | 183 | 30.6 | 43.5 | 0.00 | 0.00 | 0.00 | 79 | 1008.8 |
| 20260505172557 | 21 | 192 | 32.2 | 45.1 | 0.00 | 0.00 | 0.00 | 79 | 1008.9 |